Current Version              Previous Version:    01  02  03  04  05  06  07  08  09  10  11  12  13  14  15  16  17  18  19  20  21  22  23  24  25  26  27  28  29  30  
   31  32  33  34  35  36  37  38  39  40  41  42  43  44  45  46  47  48  49  50  51  52  53  54  55  56  57  58  59  60  

[Printable]
060
ASUS44 KFWD 201401
RWRTX
NORTH TEXAS HOURLY WEATHER ROUNDUP
NATIONAL WEATHER SERVICE FORT WORTH TX
900 AM CDT SUN APR 20 2014

NOTE: "FAIR" INDICATES FEW OR NO CLOUDS BELOW 12,000 FEET WITH NO
SIGNIFICANT WEATHER AND/OR OBSTRUCTIONS TO VISIBILITY.

TXZ118-119-201500-
DALLAS/FORT WORTH METROPLEX

CITY           SKY/WX    TMP DP  RH WIND       PRES   REMARKS
DFW AIRPORT    CLOUDY    68  56  65 SW8       30.12S
DALLAS LOVE    CLOUDY    69  55  60 VRB3      30.13R
FTW MEACHAM    CLOUDY    65  57  75 S7        30.11F
DAL-EXECUTIVE  CLOUDY    66  56  70 VRB3      30.13R
FTW-ALLIANCE   CLOUDY    65  55  70 S9        30.11F
FTW-NAS-JRB    CLOUDY    67  54  63 E8        30.14F
FTW-SPINKS     SUNNY     66  55  68 S7        30.13R
ARLINGTON      CLOUDY    67  57  70 SE6       30.12S
GRAND PRAIRIE  SUNNY     64  55  72 S7        30.15R
ADDISON        PTSUNNY   68  55  64 W5        30.14R
MESQUITE       SUNNY     64  57  77 SE6       30.13R
LANCASTER      CLOUDY    64  56  75 S7        30.12F
$$

TXZ091>094-102>105-117-120-121-131>134-201500-
NORTH CENTRAL TEXAS

CITY           SKY/WX    TMP DP  RH WIND       PRES   REMARKS
SHRMAN/DENISON CLOUDY    64  56  76 S6        30.14S
BOWIE          CLOUDY    62  57  83 CALM      30.10F
BRIDGEPORT     LGT RAIN  62  55  78 SE7       30.09F
DECATUR        CLOUDY    61  57  87 SE5       30.11F
DENTON         CLOUDY    66  57  72 S10       30.12S
MCKINNEY       CLOUDY    65  58  78 CALM      30.13S
GREENVILLE     PTSUNNY   68  55  64 S7        30.15R
ROCKWALL       CLOUDY    65  58  76 S5        30.13R
TERRELL        PTSUNNY   66  60  81 S8        30.13F
WAXAHACHIE     CLOUDY    63  56  78 S8        30.14S
CLEBURNE       CLOUDY    63  61  94 S7        30.14S
GRANBURY       CLOUDY    64  56  75 SE9       30.09F
$$

TXZ083>090-098>101-113>116-127>130-139>142-154-155-201500-
WESTERN NORTH TEXAS

CITY           SKY/WX    TMP DP  RH WIND       PRES   REMARKS
WICHITA FALLS  CLOUDY    63  54  72 SE7       30.08R
VERNON         CLOUDY    62  57  83 SE6       30.09R
ABILENE        PTSUNNY   65  55  70 CALM      30.11R
BRECKENRIDGE   CLOUDY    68  55  63 S15       30.10R
MINERAL WELLS  LGT RAIN  60  57  89 S7        30.07F
STEPHENVILLE   PTSUNNY   64  55  74 S10G17    30.11R
COMANCHE       SUNNY     62  56  81 S14       30.07F
BROWNWOOD      SUNNY     64  55  72 SE10G16   30.09R
$$

TXZ143>147-156>162-174-175-201500-
CENTRAL TEXAS

CITY           SKY/WX    TMP DP  RH WIND       PRES   REMARKS
WACO           PTSUNNY   61  57  87 SE8       30.13S
WACO-TSTC      MOSUNNY   63  59  88 SE7       30.14S
WACO-MCGREGOR  PTSUNNY   63  55  77 S10       30.14S
HILLSBORO      CLOUDY    65  57  75 S10       30.13S
CORSICANA      MOSUNNY   66  60  81 S8        30.16S
MEXIA          PTSUNNY   63  60  91 S6        30.15S
HEARNE         CLOUDY    64  61  90 SE8       30.16F
TEMPLE         CLOUDY    61  55  82 SE12      30.17S
KILLEEN        CLOUDY    63  61  94 SE15      30.12S
KILLEEN-SKYLRK CLOUDY   N/A N/A N/A SE9       30.11R
HAMILTON       MOSUNNY   64  57  78 SE17      30.11F
LAMPASAS       CLOUDY    63  60  90 SE8       30.12S
$$

TXZ095>097-106>112-122>126-135>138-148>153-164>167-201500-
EAST TEXAS

CITY           SKY/WX    TMP DP  RH WIND       PRES   REMARKS
PARIS          CLOUDY    63  55  77 SE7       30.16S
SULPHUR SPRNGS PTSUNNY   66  57  72 S7        30.17S
CLARKSVILLE    CLOUDY    63  55  76 CALM      30.17S
MINEOLA        PTSUNNY   66  61  82 S6        30.16F
TYLER          MOSUNNY   65  58  78 S6        30.16S
LONGVIEW       PTSUNNY   66  58  75 S5        30.17S
ATHENS         MOSUNNY   63  59  88 S6        30.15F
PALESTINE      MOSUNNY   64  58  83 S5        30.19S
JACKSONVILLE   SUNNY     64  58  79 SW3       30.20R
NACOGDOCHES    MOSUNNY   64  59  82 CALM      30.20R
LUFKIN         MOSUNNY   66  61  84 CALM      30.19R HAZE
$$

SUPPLEMENTAL OBSERVATIONS (CENTRAL)

CITY           SKY/WX    TMP DP  RH WIND       PRES   REMARKS
$$

SUPPLEMENTAL OBSERVATIONS (WEST)

CITY           SKY/WX    TMP DP  RH WIND       PRES   REMARKS
$$

SUPPLEMENTAL OBSERVATIONS (EAST)

CITY           SKY/WX    TMP DP  RH WIND       PRES   REMARKS
$$

SUPPLEMENTAL OBSERVATIONS ARE A COLLECTION OF AUTOMATED INSTRUMENTS
THAT ARE MAINTAINED BY A VARIETY OF FEDERAL AND STATE AGENCIES.
CERTAIN ELEMENTS...SUCH AS HUMIDITY VALUES AND SUSTAINED WIND
SPEEDS...MAY BE APPROXIMATED.